Location: Eyeline Observatory
(43.2182°N, 78.8632°W)
Time: 05:51:57
(UTC-04:00)

N. Korean satellite - Pass Details

Date: 09 October 2017
Orbit: 459 x 517 km, 97.2° (Epoch: 22 October)

Event Time Altitude Azimuth Distance (km) Brightness Sun altitude
Rises 19:46:20 0° 186° (S) 2,571 10.3 -12.5°
Reaches altitude 10° 19:48:32 10° 196° (SSW) 1,683 9.5 -12.9°
Maximum altitude 19:51:52 34° 263° (W) 816 8.4 -13.5°
Drops below altitude 10° 19:55:10 10° 330° (NNW) 1,666 9.7 -14.1°
Sets 19:57:21 0° 339° (NNW) 2,540 10.6 -14.5°
